Weather in Jacksonville

United States     39°43′23″N   90°13′44″W
temp.,
°C
wind,
m/s
gust,
m/s
humid.,
%
clouds,
%
prec.,
mm/h
press.,
hPa
HPBL,
m
25 may, wed
wed2501:00+17ese61491100 0.8 1012616
04:00+17se61496100 1.4 1010567
07:00+18se61398100 1.4 1010573
10:00+20sse61294100 0.4 1010625
13:00+21sse81488100 2.4 1008990
16:00+24sse9158299 2.4 10061243
19:00+20s71591100 5.3 1006804
22:00+19s5139581 0.1 1007487
26 may, thu
thu2601:00+18sse4119694 0.1 1007307
04:00+17se4998100 0.0 1006268
07:00+18se51194100 1.7 1006312
10:00+20sse7108287 1.2 1006922
13:00+19se488216 3.5 1005568
16:00+21s6863100 1.2 10041440
19:00+16sw5887100 1.4 1006393
22:00+14ssw3591100 0.1 1006207
27 may, fri
fri2701:00+13ssw2395100 0.5 1006179
04:00+13ssw2396100 0.4 1006140
07:00+14wsw3595100 0.9 1008268
10:00+16nw5895100 0.1 1009537
13:00+16nw6994100 0.3 1010616
16:00+17n4790100 0.2 1012622
19:00+17nne248617 0.6 1012475
22:00+14se00930 0.1 101311
28 may, sat
sat2801:00+13wnw22932 0.1 101311
04:00+12nw11917 0.0 101310
07:00+13se34915 0.0 1013118
10:00+19s44730 0.0 1013702
13:00+22s56625 0.0 10121064
16:00+24sse675945 0.0 10091076
19:00+21se51081100 0.9 1008430
22:00+18sse716875 0.3 1009380
29 may, sun
sun2901:00+18sse715878 0.3 1008382
04:00+18sse7178799 0.3 1007407
07:00+18sse9198781 1.0 1006470
10:00+22s10208178 0.9 1006690
13:00+28s9186788 1.1 10051020
16:00+29s9166599 0.0 10051397
19:00+27s817715 0.0 1005588
22:00+24s818725 0.0 1008596